Alturas, CA

3:26 PM PST on December 06, 2016 (GMT -0800)
Alturas Municipal

Weather History for KAAT - July, 2013

Change the Weather History Date:

Wednesday, July 31, 2013

  Actual Average Record
Temperature  
Mean Temperature 68 °F 67 °F  
Max Temperature 88 °F 90 °F 104 °F (1988)
Min Temperature 48 °F 45 °F 31 °F (1975)
Degree Days  
Heating Degree Days 0 1  
Month to date heating degree days 4 41  
Since 1 June heating degree days 160 221  
Since 1 July heating degree days 4 41  
Cooling Degree Days 3 3  
Month to date cooling degree days 173 84  
Year to date cooling degree days 216 95  
Since 1 June cooling degree days 216 95  
Growing Degree Days 18 (Base 50)    
Moisture  
Dew Point 31 °F    
Average Humidity 33    
Maximum Humidity 54    
Minimum Humidity 11    
Precipitation  
Precipitation T in 0.02 in 0.15 in (1952)
Month to date precipitation T 0.34  
Year to date precipitation 4.43 8.78  
Sea Level Pressure  
Sea Level Pressure 30.01 in    
Wind  
Wind Speed 6 mph (West)    
Max Wind Speed 24 mph    
Max Gust Speed 32 mph    
Visibility 10 miles    
Events      
T = Trace of Precipitation, MM = Missing Value Source: NWS Daily Summary

Daily Weather History Graph

Daily Weather History Graph

Search for Another Location

Airport or City:

Trip Planner

Search our weather history database for the weather conditions in past years. The results will help you decide how hot, cold, wet, or windy it might be!

Date:

Astronomy

Jul. 31, 2013 Rise Set
Actual Time 5:56 AM PDT 8:20 PM PDT
Civil Twilight 5:25 AM PDT 8:51 PM PDT
Nautical Twilight 4:46 AM PDT 9:30 PM PDT
Astronomical Twilight 4:03 AM PDT 10:12 PM PDT
Moon 12:55 AM PDT (7/31) 3:41 PM PDT (7/31)
Length of Visible Light 15h 26m
Length of Day
14h 23m
Waning Crescent, 31% of the Moon is Illuminated
Jul 31
Waning Crescent
Aug 6
New
Aug 14
First Quarter
Aug 20
Full
Aug 28
Last Quarter

Hourly Weather History & Observations

Time (PDT) Temp. Dew Point Humidity Pressure Visibility Wind Dir Wind Speed Gust Speed Precip Events Conditions
12:55 AM 53.1 °F 32.0 °F 45% 30.08 in 10.0 mi Calm Calm - N/A   Clear
1:55 AM 52.0 °F 32.0 °F 47% 30.07 in 10.0 mi Calm Calm - N/A   Clear
2:55 AM 51.1 °F 32.0 °F 48% 30.07 in 10.0 mi Calm Calm - N/A   Clear
3:55 AM 51.1 °F 30.9 °F 46% 30.06 in 10.0 mi Calm Calm - N/A   Mostly Cloudy
4:55 AM 54.0 °F 37.0 °F 53% 30.05 in 10.0 mi Calm Calm - 0.00 in   Mostly Cloudy
5:55 AM 52.0 °F 36.0 °F 54% 30.06 in 10.0 mi Calm Calm - N/A   Partly Cloudy
6:55 AM 54.0 °F 36.0 °F 51% 30.06 in 10.0 mi Calm Calm - N/A   Clear
7:55 AM 57.9 °F 37.0 °F 46% 30.06 in 10.0 mi Calm Calm - N/A   Partly Cloudy
8:55 AM 64.9 °F 32.0 °F 29% 30.05 in 10.0 mi Calm Calm - N/A   Partly Cloudy
9:55 AM 71.1 °F 33.1 °F 25% 30.04 in 10.0 mi Calm Calm - N/A   Mostly Cloudy
10:55 AM 77.0 °F 32.0 °F 19% 30.04 in 10.0 mi North 3.5 mph - N/A   Partly Cloudy
11:55 AM 82.0 °F 30.0 °F 15% 30.01 in 10.0 mi Variable 4.6 mph - N/A   Clear
12:55 PM 82.9 °F 27.0 °F 13% 29.99 in 10.0 mi Variable 5.8 mph 17.3 mph N/A   Partly Cloudy
1:55 PM 86.0 °F 27.0 °F 12% 29.97 in 10.0 mi WNW 15.0 mph 20.7 mph N/A   Clear
2:55 PM 86.0 °F 27.0 °F 12% 29.95 in 10.0 mi NW 9.2 mph 18.4 mph N/A   Clear
3:55 PM 86.0 °F 27.0 °F 12% 29.94 in 10.0 mi West 15.0 mph 26.5 mph N/A   Clear
4:55 PM 82.9 °F 30.9 °F 15% 29.93 in 10.0 mi WSW 19.6 mph 32.2 mph N/A   Clear
5:55 PM 82.0 °F 30.0 °F 15% 29.94 in 10.0 mi West 19.6 mph 28.8 mph N/A   Clear
6:55 PM 80.1 °F 30.0 °F 16% 29.94 in 10.0 mi West 16.1 mph - N/A   Clear
7:55 PM 75.9 °F 28.9 °F 18% 29.95 in 10.0 mi West 11.5 mph - N/A   Overcast
8:55 PM 71.1 °F 28.0 °F 20% 29.96 in 10.0 mi WSW 9.2 mph - N/A   Clear
9:55 PM 64.0 °F 28.0 °F 26% 29.97 in 10.0 mi Calm Calm - N/A   Clear
10:55 PM 61.0 °F 28.0 °F 29% 29.98 in 10.0 mi East 3.5 mph - N/A   Clear
11:55 PM 59.0 °F 30.9 °F 35% 29.97 in 10.0 mi Calm Calm - N/A   Mostly Cloudy